CW7986 Weather Reports


Display with metric or nautical units.
time (UTC)temp
F
wind
direction
speed
MPH
gust
MPH
rain 1hr
in
rain 24hr
in
rain mn
in
humidity
%
barometer
mb
20260901141024 88 87 2.0 5.0 0.00 0.00 0.00 71 1015.4
20260901140504 88 76 1.0 5.0 0.00 0.00 0.00 73 1015.4
20260901140004 88 69 1.0 4.0 0.00 0.00 0.00 74 1015.4
20260901135504 87 73 2.0 6.0 0.00 0.00 0.00 76 1015.4
20260901135024 87 78 2.0 6.0 0.00 0.00 0.00 76 1015.4
20260901134504 86 70 2.0 5.0 0.00 0.00 0.00 77 1015.3
20260901134003 85 72 2.0 5.0 0.00 0.00 0.00 78 1015.3
20260901133504 85 66 2.0 5.0 0.00 0.00 0.00 79 1015.3
20260901133003 84 57 3.0 7.0 0.00 0.00 0.00 80 1015.3
20260901132503 84 60 3.0 9.0 0.00 0.00 0.00 82 1015.2
20260901132004 83 58 4.0 9.0 0.00 0.00 0.00 82 1015.0
20260901131503 83 59 3.0 9.0 0.00 0.00 0.00 83 1014.9
20260901131003 83 63 2.0 7.0 0.00 0.00 0.00 83 1015.0
20260901130524 83 70 2.0 7.0 0.00 0.00 0.00 84 1015.0
20260901130004 82 76 3.0 6.0 0.00 0.00 0.00 85 1014.9
20260901125503 81 70 2.0 6.0 0.00 0.00 0.00 86 1014.9
20260901125003 81 65 2.0 5.0 0.00 0.00 0.00 87 1015.0
20260901124505 80 63 2.0 7.0 0.00 0.00 0.00 88 1014.9
20260901124003 80 62 3.0 7.0 0.00 0.00 0.00 88 1014.9
20260901123504 80 63 2.0 6.0 0.00 0.00 0.00 89 1014.8
20260901123004 79 63 3.0 6.0 0.00 0.00 0.00 89 1014.8
20260901122504 79 63 3.0 6.0 0.00 0.00 0.00 89 1014.8
20260901122004 78 65 3.0 6.0 0.00 0.00 0.00 90 1014.8
20260901121503 78 71 2.0 4.0 0.00 0.00 0.00 90 1014.8
20260901121004 78 75 1.0 4.0 0.00 0.00 0.00 90 1014.8
20260901120504 78 73 1.0 4.0 0.00 0.00 0.00 90 1014.8
20260901120004 78 71 1.0 4.0 0.00 0.00 0.00 90 1014.8
20260901115503 77 72 1.0 5.0 0.00 0.00 0.00 90 1014.7
20260901115004 77 64 1.0 5.0 0.00 0.00 0.00 90 1014.6
20260901114524 77 50 0.0 3.0 0.00 0.00 0.00 90 1014.6
20260901114003 77 50 1.0 2.0 0.00 0.00 0.00 90 1014.6
20260901113504 77 50 1.0 3.0 0.00 0.00 0.00 89 1014.5
20260901113004 77 50 0.0 3.0 0.00 0.00 0.00 89 1014.5
20260901112503 77 0 0.0 0.0 0.00 0.00 0.00 89 1014.5
20260901112005 77 0 0.0 0.0 0.00 0.00 0.00 89 1014.4
20260901111526 76 56 1.0 3.0 0.00 0.00 0.00 89 1014.4
20260901111004 76 53 2.0 3.0 0.00 0.00 0.00 89 1014.3
20260901110504 76 53 2.0 4.0 0.00 0.00 0.00 89 1014.3
20260901110004 76 56 1.0 4.0 0.00 0.00 0.00 89 1014.3
20260901105504 76 55 1.0 3.0 0.00 0.00 0.00 89 1014.3
20260901105004 76 50 1.0 3.0 0.00 0.00 0.00 89 1014.3
20260901104503 76 0 0.0 0.0 0.00 0.00 0.00 89 1014.3
20260901104003 76 76 0.0 3.0 0.00 0.00 0.00 89 1014.3
20260901103503 76 76 1.0 3.0 0.00 0.00 0.00 89 1014.2
20260901103024 76 76 1.0 3.0 0.00 0.00 0.00 89 1014.3
20260901102504 76 76 1.0 3.0 0.00 0.00 0.00 89 1014.2
20260901102025 76 76 0.0 2.0 0.00 0.00 0.00 89 1014.2
20260901101503 76 0 0.0 0.0 0.00 0.00 0.00 89 1014.2
20260901101003 76 0 0.0 0.0 0.00 0.00 0.00 89 1014.2
20260901100503 76 60 1.0 3.0 0.00 0.00 0.00 89 1014.1
20260901100005 76 60 1.0 4.0 0.00 0.00 0.00 89 1014.1
20260901095503 76 59 1.0 4.0 0.00 0.00 0.00 89 1014.1
20260901095004 76 52 1.0 3.0 0.00 0.00 0.00 89 1014.1
20260901094504 77 47 1.0 4.0 0.00 0.00 0.00 89 1014.2
20260901094004 76 58 2.0 4.0 0.00 0.00 0.00 89 1014.1
20260901093503 77 60 2.0 4.0 0.00 0.00 0.00 89 1013.9
20260901093004 77 61 1.0 4.0 0.00 0.00 0.00 88 1013.9
20260901092504 77 66 1.0 3.0 0.00 0.00 0.00 88 1014.0
20260901092003 77 44 0.0 2.0 0.00 0.00 0.00 88 1014.0
20260901091503 77 44 1.0 2.0 0.00 0.00 0.00 88 1014.1
20260901091004 77 44 1.0 3.0 0.00 0.00 0.00 88 1014.0
20260901090525 77 53 2.0 4.0 0.00 0.00 0.00 88 1014.0
20260901090004 77 62 2.0 4.0 0.00 0.00 0.00 88 1013.9
20260901085504 77 78 2.0 4.0 0.00 0.00 0.00 88 1013.9
20260901085003 77 78 2.0 3.0 0.00 0.00 0.00 88 1013.9
20260901084503 77 63 1.0 3.0 0.00 0.00 0.00 88 1013.9
20260901084004 77 61 0.0 3.0 0.00 0.00 0.00 88 1013.8
20260901083503 77 63 1.0 3.0 0.00 0.00 0.00 88 1013.8
20260901083024 77 59 1.0 3.0 0.00 0.00 0.00 88 1013.8
20260901082504 77 63 1.0 4.0 0.00 0.00 0.00 88 1013.7
20260901082025 77 73 1.0 4.0 0.00 0.00 0.00 88 1013.7
20260901081503 77 81 0.0 3.0 0.00 0.00 0.00 88 1013.7
20260901081005 77 81 0.0 3.0 0.00 0.00 0.00 88 1013.7
20260901080503 77 76 1.0 3.0 0.00 0.00 0.00 88 1013.7
20260901080003 77 80 1.0 3.0 0.00 0.00 0.00 88 1013.7
20260901075503 77 86 0.0 3.0 0.00 0.00 0.00 88 1013.7
20260901075003 77 62 1.0 3.0 0.00 0.00 0.00 87 1013.8
20260901074503 77 59 1.0 3.0 0.00 0.00 0.00 87 1013.8
20260901074004 77 67 0.0 4.0 0.00 0.00 0.00 87 1013.8
20260901073503 77 60 1.0 4.0 0.00 0.00 0.00 87 1013.8
20260901073003 77 55 2.0 4.0 0.00 0.00 0.00 87 1013.8
20260901072504 77 57 2.0 4.0 0.00 0.00 0.00 87 1013.8
20260901072003 77 58 2.0 4.0 0.00 0.00 0.00 87 1013.9
20260901071503 77 60 1.0 3.0 0.00 0.00 0.00 87 1014.0
20260901071004 77 76 1.0 3.0 0.00 0.00 0.00 87 1014.1
20260901070504 77 98 0.0 3.0 0.00 0.00 0.00 87 1014.1
20260901070003 77 105 0.0 2.0 0.00 0.00 0.00 87 1014.1
20260901065503 77 101 1.0 4.0 0.00 0.00 0.00 87 1014.1
20260901065003 77 95 1.0 4.0 0.00 0.00 0.00 87 1014.1
20260901064504 77 72 1.0 3.0 0.00 0.00 0.00 87 1014.2
20260901064003 77 72 1.0 4.0 0.00 0.00 0.00 87 1014.2
20260901063503 77 78 1.0 4.0 0.00 0.00 0.00 87 1014.2
20260901063004 77 67 2.0 4.0 0.00 0.00 0.00 87 1014.3
20260901062504 77 56 2.0 4.0 0.00 0.00 0.00 87 1014.3
20260901062024 77 54 1.0 3.0 0.00 0.00 0.00 87 1014.4
20260901061504 77 58 1.0 4.0 0.00 0.00 0.00 86 1014.4
20260901061004 77 62 2.0 5.0 0.00 0.00 0.00 87 1014.5
20260901060503 78 63 2.0 5.0 0.00 0.00 0.00 86 1014.6
20260901060004 77 59 2.0 5.0 0.00 0.00 0.00 86 1014.7
20260901055509 78 54 2.0 5.0 0.00 0.00 0.00 86 1014.7
20260901055024 78 53 2.0 4.0 0.00 0.00 0.00 86 1014.7
20260901054504 78 55 2.0 3.0 0.00 0.00 0.00 86 1014.7
20260901054003 78 54 1.0 3.0 0.00 0.00 0.00 86 1014.8
20260901053504 78 61 1.0 3.0 0.00 0.00 0.00 86 1014.8
20260901053024 78 63 1.0 3.0 0.00 0.00 0.00 86 1014.8
20260901052503 78 54 1.0 3.0 0.00 0.00 0.00 86 1015.0
20260901052004 78 54 1.0 3.0 0.00 0.00 0.00 86 1015.2
20260901051503 78 54 1.0 3.0 0.00 0.00 0.00 85 1015.1
20260901051003 78 56 2.0 5.0 0.00 0.00 0.00 85 1015.2
20260901050504 78 57 1.0 5.0 0.00 0.00 0.00 85 1015.2
20260901050004 78 57 1.0 4.0 0.00 0.00 0.00 85 1015.3
20260901045525 78 69 1.0 4.0 0.00 0.00 0.00 85 1015.3
20260901045004 78 66 2.0 4.0 0.00 0.00 0.00 85 1015.3
20260901044506 78 54 1.0 4.0 0.00 0.00 0.00 85 1015.3
20260901044004 78 54 1.0 3.0 0.00 0.00 0.00 85 1015.3
20260901043524 78 59 1.0 3.0 0.00 0.00 0.00 85 1015.4
20260901043025 78 59 1.0 3.0 0.00 0.00 0.00 85 1015.4
20260901042503 78 59 1.0 3.0 0.00 0.00 0.00 84 1015.5
20260901042004 78 59 1.0 3.0 0.00 0.00 0.00 84 1015.5
20260901041504 78 60 1.0 3.0 0.00 0.00 0.00 84 1015.6
20260901041003 78 62 1.0 3.0 0.00 0.00 0.00 84 1015.6
20260901040504 78 86 0.0 2.0 0.00 0.00 0.00 84 1015.6
20260901040004 78 86 0.0 2.0 0.00 0.00 0.00 84 1015.6
20260901035503 78 84 0.0 2.0 0.00 0.00 0.00 84 1015.7
20260901035003 78 65 1.0 4.0 0.00 0.00 0.00 84 1015.7
20260901034504 78 70 1.0 4.0 0.00 0.00 0.00 84 1015.8
20260901034003 78 79 1.0 3.0 0.00 0.00 0.00 84 1015.8
20260901033504 78 81 1.0 3.0 0.00 0.00 0.00 83 1015.8
20260901033004 79 78 1.0 3.0 0.00 0.00 0.00 83 1015.8
20260901032504 79 79 0.0 3.0 0.00 0.00 0.00 83 1015.8
20260901032003 79 83 0.0 3.0 0.00 0.00 0.00 83 1015.7
20260901031504 79 69 0.0 3.0 0.00 0.00 0.00 83 1015.6
20260901031003 79 65 0.0 3.0 0.00 0.00 0.00 83 1015.7
20260901030503 79 76 0.0 3.0 0.00 0.00 0.00 83 1015.6
20260901030004 79 95 1.0 5.0 0.00 0.00 0.00 83 1015.7
20260901025504 79 101 1.0 5.0 0.00 0.00 0.00 83 1015.6
20260901025024 79 95 1.0 3.0 0.00 0.00 0.00 83 1015.6
20260901024504 79 85 1.0 4.0 0.00 0.00 0.00 83 1015.5
20260901024004 79 77 1.0 4.0 0.00 0.00 0.00 83 1015.5
20260901023503 79 74 1.0 5.0 0.00 0.00 0.00 82 1015.4
20260901023003 79 72 1.0 5.0 0.00 0.00 0.00 82 1015.4
20260901022525 79 67 1.0 3.0 0.00 0.00 0.00 82 1015.4
20260901022004 79 73 1.0 4.0 0.00 0.00 0.00 82 1015.5
20260901021504 79 78 1.0 4.0 0.00 0.00 0.00 82 1015.5
20260901021024 79 94 1.0 2.0 0.00 0.00 0.00 82 1015.5
20260901020503 79 104 1.0 3.0 0.00 0.00 0.00 81 1015.5
20260901020003 79 101 1.0 3.0 0.00 0.00 0.00 81 1015.3
20260901015503 79 108 1.0 3.0 0.00 0.00 0.00 82 1015.3
20260901015004 79 94 1.0 3.0 0.00 0.00 0.00 81 1015.3
20260901014503 79 81 1.0 3.0 0.00 0.00 0.00 81 1015.3
20260901014003 79 71 1.0 3.0 0.00 0.00 0.00 81 1015.3
20260901013504 79 63 2.0 4.0 0.00 0.00 0.00 81 1015.2
20260901013003 79 63 2.0 4.0 0.00 0.00 0.00 81 1015.2
20260901012503 79 60 2.0 4.0 0.00 0.00 0.00 81 1015.3
20260901012003 79 67 2.0 5.0 0.00 0.00 0.00 81 1015.2
20260901011504 79 79 1.0 5.0 0.00 0.00 0.00 81 1015.1
20260901011004 79 80 1.0 3.0 0.00 0.00 0.00 81 1015.2
20260901010504 79 83 2.0 5.0 0.00 0.00 0.00 81 1015.2
20260901010004 79 82 2.0 5.0 0.00 0.00 0.00 81 1015.0
20260901005503 80 78 2.0 5.0 0.00 0.00 0.00 81 1014.9
20260901005024 80 85 2.0 7.0 0.00 0.00 0.00 81 1015.0
20260901004503 80 76 2.0 7.0 0.00 0.00 0.00 81 1015.0
20260901004025 80 74 2.0 6.0 0.00 0.00 0.00 81 1014.9
20260901003503 80 87 2.0 4.0 0.00 0.00 0.00 81 1015.0
20260901003003 80 89 2.0 6.0 0.00 0.00 0.00 81 1014.9
20260901002504 80 82 2.0 6.0 0.00 0.00 0.00 81 1014.9
20260901002003 80 73 2.0 6.0 0.00 0.00 0.00 81 1014.8
20260901001503 80 72 3.0 5.0 0.00 0.00 0.00 81 1014.8
20260901001004 80 73 3.0 7.0 0.00 0.00 0.00 80 1014.7
20260901000503 80 73 3.0 7.0 0.00 0.00 0.00 80 1014.7
20260901000025 80 74 3.0 7.0 0.00 0.00 0.00 80 1014.8
20260831235503 81 76 3.0 10.0 0.00 0.00 0.00 79 1014.7
20260831235003 81 77 4.0 10.0 0.00 0.00 0.00 79 1014.8
20260831234525 81 74 4.0 9.0 0.00 0.00 0.00 79 1014.8
20260831234004 81 73 4.0 12.0 0.00 0.00 0.00 79 1015.0
20260831233503 82 76 3.0 12.0 0.00 0.00 0.00 79 1015.0
20260831233003 82 82 3.0 7.0 0.00 0.00 0.00 79 1015.2
20260831232504 82 80 3.0 9.0 0.00 0.00 0.00 78 1015.2
20260831232003 82 74 4.0 10.0 0.00 0.00 0.00 78 1015.2
20260831231503 82 71 4.0 10.0 0.00 0.00 0.00 78 1015.0
20260831231004 82 68 5.0 12.0 0.00 0.00 0.00 78 1015.0
20260831230525 82 64 5.0 13.0 0.00 0.00 0.00 78 1015.0
20260831230025 82 66 5.0 13.0 0.00 0.00 0.00 78 1014.9
20260831225524 82 74 4.0 10.0 0.00 0.00 0.00 77 1014.8
20260831225024 83 74 4.0 11.0 0.00 0.00 0.00 77 1014.8
20260831224503 83 70 4.0 11.0 0.00 0.00 0.00 76 1014.8
20260831224003 84 69 4.0 10.0 0.00 0.00 0.00 74 1014.8
20260831223503 84 63 4.0 15.0 0.00 0.00 0.00 73 1014.8
20260831223003 85 59 4.0 15.0 0.00 0.00 0.00 71 1014.5
20260831222524 86 65 4.0 10.0 0.00 0.00 0.00 70 1014.4
20260831222004 87 25 5.0 13.0 0.00 0.00 0.00 68 1014.2
20260831221525 89 303 6.0 13.0 0.00 0.00 0.00 69 1014.3
20260831221003 89 284 7.0 13.0 0.00 0.00 0.00 69 1013.8
20260831220504 88 286 6.0 11.0 0.00 0.00 0.00 70 1013.8
20260831220003 88 292 5.0 11.0 0.00 0.00 0.00 69 1013.9
20260831215503 89 300 5.0 11.0 0.00 0.00 0.00 69 1013.7
20260831215003 89 296 6.0 13.0 0.00 0.00 0.00 69 1013.7
20260831214524 88 296 6.0 13.0 0.00 0.00 0.00 69 1013.6
20260831214003 88 296 6.0 13.0 0.00 0.00 0.00 69 1013.5
20260831213503 88 290 6.0 13.0 0.00 0.00 0.00 69 1013.5
20260831213003 88 290 6.0 12.0 0.00 0.00 0.00 70 1013.5
20260831212504 88 293 6.0 12.0 0.00 0.00 0.00 68 1013.7
20260831212003 88 299 6.0 11.0 0.00 0.00 0.00 69 1013.7
20260831211504 88 291 6.0 11.0 0.00 0.00 0.00 69 1013.7
20260831211004 88 281 7.0 13.0 0.00 0.00 0.00 69 1013.6
20260831210503 88 284 7.0 13.0 0.00 0.00 0.00 69 1013.6
20260831210004 88 286 7.0 12.0 0.00 0.00 0.00 68 1013.8
20260831205504 88 285 7.0 12.0 0.00 0.00 0.00 68 1014.0
20260831205003 89 282 7.0 14.0 0.00 0.00 0.00 67 1014.1
20260831204504 88 281 7.0 14.0 0.00 0.00 0.00 67 1014.2
20260831204003 89 284 7.0 13.0 0.00 0.00 0.00 67 1014.3
20260831203503 89 294 7.0 13.0 0.00 0.00 0.00 67 1014.2
20260831203004 89 294 7.0 13.0 0.00 0.00 0.00 68 1014.2
20260831202504 89 283 7.0 13.0 0.00 0.00 0.00 69 1014.3
20260831202003 88 282 8.0 13.0 0.00 0.00 0.00 66 1014.3
20260831201524 89 284 7.0 13.0 0.00 0.00 0.00 66 1014.2
20260831201003 89 281 7.0 12.0 0.00 0.00 0.00 67 1014.2
20260831200504 89 282 7.0 12.0 0.00 0.00 0.00 67 1014.2
20260831200004 89 275 6.0 11.0 0.00 0.00 0.00 67 1014.2
20260831195524 89 269 6.0 11.0 0.00 0.00 0.00 67 1014.2
20260831195024 88 278 6.0 11.0 0.00 0.00 0.00 67 1014.2
20260831194504 88 285 6.0 11.0 0.00 0.00 0.00 67 1014.2
20260831194004 88 277 5.0 11.0 0.00 0.00 0.00 67 1014.2
20260831193503 90 269 5.0 12.0 0.00 0.00 0.00 66 1014.2
20260831193003 89 270 6.0 12.0 0.00 0.01 0.00 68 1014.2
20260831192504 88 269 5.0 11.0 0.00 0.01 0.00 67 1014.2
20260831192004 89 271 5.0 10.0 0.00 0.01 0.00 66 1014.2
20260831191525 89 271 5.0 12.0 0.00 0.03 0.00 66 1014.2
20260831191004 89 266 5.0 12.0 0.00 0.03 0.00 65 1014.2
20260831190504 90 268 6.0 13.0 0.00 0.03 0.00 66 1014.3
20260831190004 89 271 7.0 14.0 0.00 0.03 0.00 67 1014.3
20260831185504 90 272 6.0 14.0 0.00 0.03 0.00 66 1014.3
20260831185004 89 271 5.0 12.0 0.00 0.03 0.00 66 1014.4
20260831184525 90 271 6.0 13.0 0.00 0.03 0.00 67 1014.4
20260831184003 88 269 6.0 13.0 0.00 0.03 0.00 68 1014.5
20260831183504 89 269 5.0 11.0 0.00 0.03 0.00 68 1014.6
20260831183003 90 270 6.0 11.0 0.00 0.03 0.00 69 1014.7
20260831182504 90 270 4.0 11.0 0.00 0.03 0.00 67 1014.8
20260831182003 91 271 4.0 11.0 0.00 0.03 0.00 67 1014.9
20260831181504 90 272 6.0 11.0 0.00 0.03 0.00 69 1014.9
20260831181003 89 274 5.0 11.0 0.00 0.03 0.00 67 1014.8
20260831180504 90 275 4.0 9.0 0.00 0.03 0.00 68 1015.0
20260831180026 90 274 5.0 11.0 0.00 0.03 0.00 69 1015.0
20260831175504 89 272 5.0 11.0 0.00 0.03 0.00 69 1015.0
20260831175004 90 270 4.0 9.0 0.00 0.03 0.00 69 1015.2
20260831174525 90 273 4.0 11.0 0.00 0.03 0.00 68 1015.1
20260831174003 90 274 4.0 11.0 0.00 0.03 0.00 69 1015.2
20260831173504 90 271 5.0 10.0 0.00 0.03 0.00 69 1015.3
20260831173025 88 275 6.0 11.0 0.00 0.03 0.00 70 1015.3
20260831172503 88 277 5.0 11.0 0.00 0.03 0.00 70 1015.4
20260831172004 89 274 4.0 9.0 0.00 0.03 0.00 69 1015.6
20260831171504 88 272 4.0 10.0 0.00 0.03 0.00 69 1015.6
20260831171025 90 271 3.0 10.0 0.00 0.03 0.00 64 1015.7
20260831170504 94 187 1.0 5.0 0.00 0.03 0.00 59 1015.8
20260831170024 95 109 1.0 4.0 0.00 0.03 0.00 53 1015.8
20260831165503 93 113 1.0 4.0 0.00 0.03 0.00 58 1015.8
20260831165004 91 145 1.0 4.0 0.00 0.03 0.00 59 1015.8
20260831164504 94 140 2.0 7.0 0.00 0.03 0.00 54 1015.9
20260831164003 93 123 2.0 7.0 0.00 0.03 0.00 60 1015.9
20260831163504 94 98 1.0 6.0 0.00 0.03 0.00 58 1015.9
20260831163003 94 100 2.0 5.0 0.00 0.03 0.00 61 1015.9
20260831162504 93 104 2.0 5.0 0.00 0.03 0.00 58 1016.1
20260831162004 92 127 2.0 5.0 0.00 0.03 0.00 58 1016.2
20260831161524 94 120 2.0 5.0 0.00 0.03 0.00 57 1016.2
20260831161004 93 131 1.0 5.0 0.00 0.03 0.00 61 1016.2
20260831160504 91 155 2.0 6.0 0.00 0.03 0.00 63 1016.2
20260831160003 92 137 2.0 6.0 0.00 0.03 0.00 61 1016.3
20260831155509 92 90 2.0 4.0 0.00 0.03 0.00 61 1016.3
20260831155003 91 97 2.0 6.0 0.00 0.03 0.00 65 1016.3
20260831154503 89 148 2.0 7.0 0.00 0.03 0.00 67 1016.4
20260831154003 91 146 2.0 7.0 0.00 0.03 0.00 66 1016.4
20260831153503 91 141 2.0 9.0 0.00 0.03 0.00 63 1016.4
20260831153004 91 145 3.0 9.0 0.00 0.03 0.00 66 1016.4
20260831152525 89 138 3.0 6.0 0.00 0.03 0.00 66 1016.4
20260831152003 90 108 1.0 6.0 0.00 0.03 0.00 66 1016.3
20260831151504 90 94 1.0 6.0 0.00 0.03 0.00 67 1016.3
20260831151003 90 83 2.0 5.0 0.00 0.03 0.00 69 1016.3
20260831150524 89 84 2.0 5.0 0.00 0.03 0.00 70 1016.3
20260831150004 89 114 2.0 5.0 0.00 0.03 0.00 69 1016.3
20260831145503 88 107 2.0 5.0 0.00 0.03 0.00 69 1016.2
20260831145003 89 119 2.0 7.0 0.00 0.03 0.00 70 1016.3
20260831144503 88 120 2.0 7.0 0.00 0.03 0.00 70 1016.3
20260831144004 88 84 2.0 5.0 0.00 0.03 0.00 70 1016.3
20260831143505 88 91 2.0 5.0 0.00 0.03 0.00 72 1016.3
20260831143004 88 99 2.0 6.0 0.00 0.03 0.00 73 1016.3
20260831142504 87 84 2.0 6.0 0.00 0.03 0.00 72 1016.2
20260831142003 86 72 2.0 6.0 0.00 0.03 0.00 74 1016.2
20260831141503 86 79 2.0 6.0 0.00 0.03 0.00 74 1016.2